Theta_e
323 325 328 327 327 326 326 327 327 322 319 322 324 325 325 324 318 317 319 317 311 319 327 330 329 327 327 327 324 324 320 318 313 311 310 308 307 305 303 302 301 302 302 301
326 329 326 325 326 328 328 330 330 328 325 325 325 326 326 325 324 319 321 318 314 315 323 327 327 326 326 326 324 322 318 316 313 310 309 307 305 304 303 300 300 301 301 300
328 326 324 327 328 329 329 331 330 330 327 326 327 330 328 325 323 323 322 320 317 312 320 327 327 326 325 325 323 322 318 314 312 309 307 305 305 303 301 299 299 300 301 299
325 325 325 324 328 328 332 327 329 330 331 334 326 332 326 324 322 322 322 319 319 313 316 326 327 326 325 325 323 321 318 313 310 308 306 305 304 301 300 299 299 299 299 299
321 325 325 327 326 323 328 326 327 328 326 325 326 329 326 323 322 321 320 319 319 317 313 324 327 327 326 324 322 320 316 312 309 306 305 304 303 302 300 299 298 298 298 298
317 315 316 320 320 322 322 322 323 323 325 330 326 326 324 322 320 320 321 319 318 317 315 317 327 328 327 324 321 319 315 312 307 307 305 305 302 299 299 298 297 297 296 296
317 316 314 314 317 317 319 322 327 328 328 327 322 323 324 321 320 320 320 318 316 316 316 314 324 328 327 321 318 317 313 311 306 306 304 305 303 301 299 298 296 296 296 295
317 318 315 315 316 316 318 321 326 326 324 320 318 323 321 320 320 319 315 315 313 312 311 313 318 327 323 319 316 315 312 310 307 306 303 301 302 300 299 298 296 295 295 295
320 320 318 318 317 316 318 318 318 322 322 323 320 320 319 319 321 320 318 317 315 313 313 314 313 326 321 317 315 314 311 309 308 305 301 301 301 299 297 296 295 294 294 294
317 322 318 318 318 318 320 319 322 322 326 325 320 319 319 321 323 322 321 319 316 313 311 310 312 319 318 315 312 311 310 308 307 304 302 300 300 299 297 296 296 294 293 293
308 313 316 316 318 318 322 323 323 325 324 325 322 321 320 316 316 317 317 317 316 313 310 309 308 307 308 309 309 309 309 307 305 302 301 300 300 299 297 296 295 293 293 293
307 306 311 307 307 311 315 314 313 315 315 317 321 324 309 312 312 314 317 316 317 314 309 307 306 306 307 307 308 308 307 305 303 301 302 304 302 301 298 296 295 294 293 292
305 307 308 309 314 309 309 311 311 311 313 313 312 314 311 314 311 312 314 315 315 317 311 309 306 305 305 306 307 306 304 303 303 302 300 298 297 296 296 294 294 294 292 291
306 307 306 305 306 306 306 307 310 312 312 312 310 310 310 310 310 310 312 317 318 316 313 309 308 306 305 306 304 304 304 304 303 300 298 296 296 297 296 294 293 292 291 290
306 305 307 307 307 304 305 307 307 307 308 311 308 309 308 309 310 309 310 312 313 316 314 310 307 305 303 302 301 302 301 299 297 297 296 295 294 294 294 293 292 291 290 290
302 296 302 297 299 304 306 305 304 303 304 305 308 309 308 308 308 311 312 313 313 313 315 313 309 306 305 302 300 300 297 297 296 295 294 293 292 292 292 291 291 290 289 290
299 296 299 299 298 302 303 301 299 302 303 304 305 304 309 308 308 310 312 312 312 312 312 312 309 308 306 302 300 299 296 295 294 293 293 293 292 291 290 290 289 289 290 288
296 299 296 298 300 297 299 301 303 304 305 310 311 311 310 309 309 311 311 312 313 312 311 311 310 309 306 302 300 298 295 294 293 292 292 292 291 291 290 289 289 290 289 287
298 297 296 295 300 299 299 303 307 307 308 306 306 308 309 309 309 310 311 311 311 308 307 309 310 308 304 300 298 296 295 294 293 292 292 292 292 291 290 289 289 288 287 287
296 297 299 298 301 303 304 304 305 306 308 304 305 305 307 310 311 309 309 308 309 306 300 305 307 305 301 298 296 295 294 294 293 293 292 292 292 292 290 290 289 288 287 288
293 286 294 297 300 302 302 302 303 305 305 304 304 304 305 310 310 309 307 308 308 305 298 301 303 300 298 296 295 295 294 294 294 293 292 291 291 291 291 290 288 288 286 287
298 293 291 294 300 301 300 301 301 303 305 304 303 306 306 306 306 306 305 305 306 306 301 298 297 296 296 295 295 294 294 294 294 293 291 291 291 290 291 289 287 287 286 285
297 296 296 297 299 299 300 299 300 303 304 301 301 305 300 301 305 305 305 304 306 303 299 298 295 294 294 294 295 293 293 293 292 291 291 290 290 289 289 288 286 285 285 283
296 298 296 299 299 299 298 298 298 300 298 299 300 305 307 307 305 305 304 304 304 299 299 296 295 294 293 294 294 293 292 292 291 290 289 288 288 287 287 287 286 285 284 283
293 295 295 295 296 296 296 297 299 297 297 298 302 304 305 305 305 303 303 303 299 297 297 296 296 295 292 293 293 292 291 290 289 288 287 287 287 286 286 286 286 286 285 285
294 295 295 295 295 295 295 297 297 297 297 299 303 304 304 302 300 299 298 298 297 296 296 296 295 294 292 291 290 290 290 290 288 287 287 286 286 286 286 285 285 285 286 286
Wind_Speed
5 4 11 20 19 15 4 7 12 3 4 7 12 28 28 14 8 12 15 14 9 14 24 22 28 31 32 33 35 40 40 44 47 41 41 39 37 32 27 25 24 23 23 21
5 21 13 9 15 17 18 18 25 19 12 10 8 25 30 17 16 12 17 15 13 9 11 14 24 31 37 39 37 39 41 45 45 39 35 32 36 33 30 26 24 22 23 21
16 9 6 16 14 15 17 25 23 19 2 13 8 23 30 26 14 14 16 17 15 15 14 14 17 32 37 41 44 45 45 45 42 38 34 31 33 33 30 28 26 25 22 21
15 14 22 17 15 11 22 12 21 18 10 10 9 10 27 27 20 15 13 12 16 11 9 14 19 20 35 43 43 43 44 46 43 46 40 43 34 27 23 32 30 27 24 21
14 1 8 22 27 14 27 9 18 14 9 6 22 8 22 27 26 19 13 12 15 13 11 16 20 26 41 37 43 44 41 43 41 45 40 39 28 25 32 32 29 26 23 22
19 10 5 8 6 6 11 12 7 8 7 11 33 17 12 18 14 4 4 8 9 10 11 11 18 30 31 32 34 37 39 42 41 45 45 41 36 35 36 35 33 30 27 24
6 17 24 20 20 20 13 11 5 6 11 15 23 13 20 29 18 21 13 7 8 9 12 11 12 17 22 32 36 38 41 41 42 42 43 48 50 43 42 41 36 34 31 26
9 15 7 5 16 19 12 17 11 21 11 16 8 13 18 14 23 11 5 6 8 9 8 12 12 18 20 35 39 41 41 39 42 39 36 36 42 41 39 41 38 35 34 31
3 10 11 6 3 5 7 14 19 21 25 17 19 22 15 10 4 7 8 9 10 9 10 9 13 17 24 35 39 41 40 37 40 38 36 35 40 36 33 35 38 37 33 29
5 7 9 10 4 12 13 4 3 8 16 28 13 20 17 8 11 14 14 13 14 10 8 10 8 8 18 25 27 29 31 33 32 34 33 32 29 35 30 38 40 37 35 32
8 5 6 8 3 13 8 6 11 8 8 11 20 7 9 15 15 17 18 18 11 11 5 5 9 11 18 21 23 25 27 29 31 31 32 34 35 35 36 30 35 38 36 31
3 4 4 9 20 8 10 4 4 2 7 7 4 2 7 10 15 15 14 18 20 9 9 4 9 12 17 20 23 25 27 29 32 34 37 42 43 41 39 40 38 37 36 33
1 1 5 9 5 4 4 8 5 5 7 2 3 5 5 6 8 10 12 12 12 13 5 1 6 10 11 21 28 30 29 29 31 35 30 30 30 36 36 34 38 38 35 31
6 5 8 7 11 7 10 13 12 5 4 3 8 19 17 8 7 11 10 16 14 9 3 4 5 6 6 17 18 23 27 38 41 37 38 36 39 41 42 39 39 37 33 33
5 6 6 11 13 13 16 19 12 12 13 10 22 19 20 16 9 12 16 19 19 11 7 9 6 7 6 9 15 20 21 28 28 32 32 34 36 42 44 42 40 36 33 30
3 4 3 6 14 12 12 19 23 17 18 15 18 21 19 18 17 13 15 17 18 14 8 9 10 9 10 13 16 19 20 30 34 34 32 35 35 37 41 41 40 37 33 28
4 3 2 6 6 4 6 20 16 12 12 11 11 17 15 17 16 12 8 8 15 19 10 9 13 15 14 21 24 23 25 31 30 31 34 37 39 37 37 40 39 38 33 29
4 3 2 5 6 5 10 6 13 12 7 5 7 11 10 12 16 15 9 7 13 16 12 11 12 11 17 21 23 24 29 28 28 27 27 34 35 35 33 36 35 33 34 32
14 5 3 3 4 8 10 3 4 7 3 7 10 13 16 14 12 8 6 9 11 9 9 9 14 14 19 25 27 26 26 27 27 28 30 34 38 36 35 31 30 30 32 33
6 10 4 3 4 4 1 13 11 13 6 9 11 10 14 12 6 5 16 18 15 6 10 4 11 16 20 22 28 27 26 28 28 31 32 34 38 41 35 33 32 31 30 31
2 1 6 7 7 6 10 17 17 6 6 18 14 12 12 6 5 11 16 14 13 4 5 13 15 13 17 25 28 24 25 25 25 26 29 30 31 33 37 34 33 32 29 30
3 3 3 3 5 6 12 14 7 11 9 11 14 13 13 13 14 14 14 13 12 14 8 9 9 13 22 27 26 20 19 23 29 30 26 27 30 32 37 36 31 32 30 27
4 6 4 7 5 5 5 12 17 12 10 13 15 12 10 15 15 12 10 8 12 7 4 7 6 9 15 22 25 21 20 30 32 30 29 29 29 32 36 36 33 29 28 25
4 4 4 1 7 13 8 12 12 7 12 16 15 14 13 13 15 13 13 10 7 3 2 3 3 4 7 15 17 19 28 30 30 27 27 29 28 28 29 29 32 29 27 24
6 4 4 8 13 9 12 9 6 11 14 14 12 9 13 9 14 12 11 6 3 3 2 3 5 6 9 17 19 21 27 28 25 23 24 24 26 27 25 28 31 32 31 32
6 10 4 9 10 8 13 6 8 14 16 12 10 11 12 4 7 5 5 3 4 4 5 4 6 10 12 18 19 21 25 27 25 23 23 24 25 25 25 24 22 23 29 27
Wind_Direction
195 202 209 203 206 231 207 241 256 184 230 304 273 280 284 287 253 271 272 270 252 225 230 223 208 197 193 188 183 185 184 188 188 179 176 178 179 180 181 184 184 182 181 178
295 242 223 205 217 225 241 259 263 277 244 238 249 272 283 283 270 245 262 260 258 239 232 203 196 192 191 189 188 185 185 186 186 182 179 176 176 178 181 181 181 181 181 178
226 215 213 216 228 226 242 240 260 253 234 258 275 282 286 281 265 262 251 260 261 233 226 202 194 194 192 192 190 189 186 183 182 177 171 167 170 173 175 177 175 176 182 180
254 264 256 260 242 226 254 230 259 265 271 263 165 277 289 278 278 259 252 241 253 247 229 211 202 195 197 201 192 189 184 181 180 177 172 171 173 168 174 171 174 173 177 180
226 84 221 238 247 229 257 227 247 253 242 294 266 234 262 286 277 267 239 243 246 248 227 212 204 200 204 198 191 188 182 179 179 175 177 171 168 173 170 174 170 171 171 183
264 289 279 253 300 241 298 283 265 273 261 250 253 238 280 264 257 208 226 240 246 255 257 224 213 205 203 193 188 184 181 180 178 175 180 175 169 163 165 169 169 170 170 177
278 255 256 255 270 272 269 277 278 253 232 249 267 272 232 258 260 250 264 265 285 283 275 259 202 196 188 184 183 184 180 181 178 176 175 181 178 177 173 172 170 170 170 173
272 292 225 201 209 241 211 224 233 251 249 256 256 234 244 267 266 271 30 333 310 312 296 274 229 196 184 183 183 183 182 178 176 174 174 171 174 177 176 176 174 172 174 175
292 257 311 256 323 225 281 220 242 253 261 270 259 279 287 274 360 352 346 353 338 319 311 293 257 202 186 185 184 182 178 175 174 169 166 169 173 172 171 173 174 176 177 171
323 280 264 301 295 257 230 264 211 221 242 247 232 246 250 3 8 348 358 345 333 319 348 351 349 195 171 171 167 170 173 170 168 163 163 165 166 162 181 180 178 177 175 171
14 319 325 338 333 323 301 262 252 266 253 244 243 244 29 25 7 343 334 330 327 315 341 50 59 65 92 119 138 150 157 160 160 156 155 157 165 175 178 184 177 176 173 170
104 275 309 276 284 336 282 71 295 341 335 283 307 130 80 343 355 332 325 324 322 321 293 113 110 119 123 129 141 148 153 158 158 155 162 180 182 181 183 189 179 177 173 172
179 8 308 308 139 97 357 307 244 274 230 277 3 292 7 276 313 300 291 253 267 250 200 75 122 134 145 151 155 155 155 155 153 161 163 160 169 163 172 179 177 175 173 169
166 204 213 241 268 306 281 298 303 256 269 355 267 277 279 245 288 292 280 262 261 287 182 212 155 137 149 166 160 163 162 166 167 166 166 166 170 175 178 179 174 175 170 169
191 238 238 252 264 278 277 294 291 293 292 271 276 281 285 303 284 263 293 295 293 282 195 186 190 164 153 158 155 158 161 158 159 158 165 163 169 168 173 173 171 170 170 169
196 253 237 282 287 265 278 285 278 268 268 257 254 266 279 281 267 250 247 269 281 288 237 185 178 180 180 171 172 158 155 156 163 159 157 159 158 160 163 166 167 168 168 170
187 214 161 256 265 280 286 258 274 262 260 269 282 289 344 323 298 282 288 284 296 274 262 208 197 197 188 182 176 168 157 160 159 157 157 157 160 159 160 164 166 166 168 176
226 176 172 264 270 216 236 301 282 264 283 9 327 330 335 341 320 309 289 285 308 303 261 202 203 207 188 170 171 162 155 158 156 153 154 155 157 157 160 164 165 166 169 175
219 198 256 211 228 277 288 3 338 322 249 38 329 329 335 326 332 330 360 322 292 305 306 205 199 199 164 163 164 154 151 154 158 158 160 162 164 161 164 164 167 167 166 174
180 203 201 328 263 261 324 335 315 280 250 343 335 324 309 325 326 289 327 326 315 305 321 297 159 152 149 155 155 152 158 161 169 168 169 170 170 169 167 170 169 167 174 168
299 47 197 231 245 273 4 325 312 272 327 316 317 292 295 292 278 301 299 312 308 334 331 328 140 145 152 156 157 158 164 176 173 168 166 168 170 167 168 168 170 167 176 168
224 166 237 262 230 253 1 329 354 309 284 281 306 313 324 317 303 302 290 285 287 313 349 340 290 134 154 161 154 156 170 169 169 165 162 166 168 167 168 170 166 168 168 160
240 189 190 179 232 269 189 229 269 260 287 304 304 294 300 277 290 276 285 279 275 254 311 295 232 133 151 160 165 157 161 167 164 158 161 168 166 167 168 164 157 156 161 163
252 197 210 165 246 262 265 262 270 281 299 298 305 294 288 280 296 287 287 274 255 146 232 239 149 84 131 165 162 161 163 166 160 159 159 162 162 161 165 161 162 159 164 171
198 184 211 257 279 277 268 251 254 287 292 292 291 283 290 277 292 300 285 313 102 102 82 122 131 145 146 155 159 170 165 166 154 153 153 159 162 160 161 163 168 174 184 184
188 227 197 253 257 236 265 272 299 295 297 296 308 319 324 284 306 331 14 15 22 44 45 76 116 132 146 153 153 164 172 168 156 153 158 162 159 160 163 162 159 182 193 196